| time (UTC) | temp F | wind direction | speed MPH | gust MPH | rain 1hr in | rain 24hr in | rain mn in | humidity % | barometer mb |
| 20260504015020 | 48 | 227 | 0.0 | 0.0 | 0.00 | 0.00 | 0.00 | 78 | 980.3 |
| 20260504014516 | 48 | 227 | 0.0 | 0.0 | 0.00 | 0.00 | 0.00 | 78 | 980.3 |
| 20260504014014 | 48 | 227 | 0.0 | 0.0 | 0.00 | 0.00 | 0.00 | 76 | 980.2 |
| 20260504013512 | 48 | 227 | 0.0 | 0.0 | 0.00 | 0.00 | 0.00 | 74 | 980.3 |
| 20260504013008 | 48 | 227 | 0.0 | 0.0 | 0.00 | 0.00 | 0.00 | 75 | 980.4 |
| 20260504012506 | 48 | 227 | 0.0 | 0.0 | 0.00 | 0.00 | 0.00 | 74 | 980.3 |
| 20260504012004 | 48 | 227 | 0.0 | 0.0 | 0.00 | 0.00 | 0.00 | 76 | 980.1 |
| 20260504011500 | 48 | 227 | 0.0 | 0.0 | 0.00 | 0.00 | 0.00 | 73 | 980.3 |
| 20260504010955 | 48 | 227 | 0.0 | 0.0 | 0.00 | 0.00 | 0.00 | 71 | 980.4 |
| 20260504010452 | 49 | 227 | 0.0 | 0.0 | 0.00 | 0.00 | 0.00 | 75 | 980.1 |
| 20260504005947 | 49 | 227 | 0.0 | 0.0 | 0.00 | 0.00 | 0.00 | 67 | 980.2 |
| 20260504005444 | 49 | 227 | 0.0 | 0.0 | 0.00 | 0.00 | 0.00 | 70 | 980.2 |
| 20260504004942 | 49 | 227 | 0.0 | 0.0 | 0.00 | 0.00 | 0.00 | 64 | 980.2 |
| 20260504004440 | 49 | 227 | 0.0 | 0.0 | 0.00 | 0.00 | 0.00 | 67 | 979.8 |
| 20260504003937 | 49 | 227 | 0.0 | 0.0 | 0.00 | 0.00 | 0.00 | 66 | 980.1 |
| 20260504003433 | 49 | 227 | 0.0 | 0.0 | 0.00 | 0.00 | 0.00 | 62 | 979.9 |
| 20260504002930 | 50 | 227 | 0.0 | 0.0 | 0.00 | 0.00 | 0.00 | 68 | 979.9 |
| 20260504002427 | 50 | 227 | 0.0 | 0.0 | 0.00 | 0.00 | 0.00 | 62 | 980.0 |
| 20260504001924 | 50 | 227 | 0.0 | 0.0 | 0.00 | 0.00 | 0.00 | 59 | 980.2 |
| 20260504001422 | 51 | 227 | 0.0 | 0.0 | 0.00 | 0.00 | 0.00 | 61 | 980.0 |
| 20260504000918 | 51 | 227 | 1.0 | 1.0 | 0.00 | 0.00 | 0.00 | 51 | 979.8 |
| 20260504000416 | 52 | 227 | 1.0 | 2.0 | 0.00 | 0.00 | 0.00 | 58 | 980.0 |
| 20260503235912 | 52 | 168 | 1.0 | 1.0 | 0.00 | 0.00 | 0.00 | 49 | 980.0 |
| 20260503235410 | 53 | 161 | 0.0 | 1.0 | 0.00 | 0.00 | 0.00 | 49 | 980.1 |
| 20260503234908 | 54 | 161 | 0.0 | 1.0 | 0.00 | 0.00 | 0.00 | 50 | 980.1 |
| 20260503234405 | 53 | 156 | 2.0 | 3.0 | 0.00 | 0.00 | 0.00 | 47 | 979.9 |
| 20260503233903 | 53 | 231 | 1.0 | 2.0 | 0.00 | 0.00 | 0.00 | 51 | 980.1 |
| 20260503233359 | 53 | 231 | 1.0 | 2.0 | 0.00 | 0.00 | 0.00 | 45 | 980.0 |
| 20260503232855 | 54 | 230 | 0.0 | 3.0 | 0.00 | 0.00 | 0.00 | 39 | 980.1 |
| 20260503232353 | 55 | 229 | 1.0 | 2.0 | 0.00 | 0.00 | 0.00 | 38 | 980.2 |
| 20260503231850 | 55 | 253 | 0.0 | 1.0 | 0.00 | 0.00 | 0.00 | 42 | 980.1 |
| 20260503231347 | 56 | 265 | 0.0 | 3.0 | 0.00 | 0.00 | 0.00 | 40 | 980.1 |
| 20260503230843 | 56 | 251 | 2.0 | 3.0 | 0.00 | 0.00 | 0.00 | 39 | 980.1 |
| 20260503230340 | 56 | 125 | 2.0 | 3.0 | 0.00 | 0.00 | 0.00 | 41 | 980.2 |
| 20260503225838 | 56 | 172 | 2.0 | 2.0 | 0.00 | 0.00 | 0.00 | 35 | 980.3 |
| 20260503225333 | 57 | 236 | 0.0 | 3.0 | 0.00 | 0.00 | 0.00 | 35 | 980.2 |
| 20260503224830 | 58 | 130 | 4.0 | 4.0 | 0.00 | 0.00 | 0.00 | 35 | 980.3 |
| 20260503224327 | 58 | 127 | 0.0 | 2.0 | 0.00 | 0.00 | 0.00 | 36 | 980.3 |
| 20260503223825 | 59 | 38 | 0.0 | 1.0 | 0.00 | 0.00 | 0.00 | 36 | 980.4 |
| 20260503223323 | 60 | 178 | 1.0 | 1.0 | 0.00 | 0.00 | 0.00 | 33 | 980.4 |
| 20260503222818 | 59 | 90 | 1.0 | 2.0 | 0.00 | 0.00 | 0.00 | 34 | 980.2 |
| 20260503222317 | 59 | 241 | 3.0 | 4.0 | 0.00 | 0.00 | 0.00 | 34 | 980.2 |
| 20260503221814 | 58 | 210 | 0.0 | 3.0 | 0.00 | 0.00 | 0.00 | 37 | 980.1 |
| 20260503221313 | 59 | 97 | 2.0 | 3.0 | 0.00 | 0.00 | 0.00 | 35 | 980.2 |
| 20260503220808 | 59 | 211 | 1.0 | 2.0 | 0.00 | 0.00 | 0.00 | 32 | 980.2 |
| 20260503220306 | 59 | 222 | 0.0 | 1.0 | 0.00 | 0.00 | 0.00 | 34 | 980.3 |
| 20260503215802 | 59 | 222 | 1.0 | 6.0 | 0.00 | 0.00 | 0.00 | 38 | 980.3 |
| 20260503215259 | 59 | 156 | 1.0 | 3.0 | 0.00 | 0.00 | 0.00 | 36 | 980.3 |
| 20260503214757 | 59 | 200 | 2.0 | 4.0 | 0.00 | 0.00 | 0.00 | 33 | 980.0 |
| 20260503214254 | 59 | 124 | 3.0 | 4.0 | 0.00 | 0.00 | 0.00 | 33 | 980.2 |
| 20260503213752 | 60 | 248 | 2.0 | 2.0 | 0.00 | 0.00 | 0.00 | 33 | 980.0 |
| 20260503213249 | 60 | 157 | 0.0 | 1.0 | 0.00 | 0.00 | 0.00 | 37 | 980.1 |
| 20260503212745 | 60 | 157 | 1.0 | 3.0 | 0.00 | 0.00 | 0.00 | 35 | 980.2 |
| 20260503212243 | 60 | 230 | 2.0 | 3.0 | 0.00 | 0.00 | 0.00 | 32 | 980.2 |
| 20260503211741 | 60 | 115 | 0.0 | 3.0 | 0.00 | 0.00 | 0.00 | 35 | 980.1 |
| 20260503211237 | 59 | 104 | 5.0 | 8.0 | 0.00 | 0.00 | 0.00 | 35 | 980.1 |
| 20260503210732 | 59 | 324 | 1.0 | 2.0 | 0.00 | 0.00 | 0.00 | 35 | 980.3 |
| 20260503210230 | 58 | 4 | 3.0 | 4.0 | 0.00 | 0.00 | 0.00 | 34 | 980.4 |
| 20260503205725 | 58 | 12 | 8.0 | 9.0 | 0.00 | 0.00 | 0.00 | 32 | 980.5 |
| 20260503205221 | 59 | 304 | 3.0 | 7.0 | 0.00 | 0.00 | 0.00 | 33 | 980.6 |
| 20260503204718 | 59 | 286 | 4.0 | 6.0 | 0.00 | 0.00 | 0.00 | 33 | 980.6 |
| 20260503204216 | 60 | 293 | 2.0 | 2.0 | 0.00 | 0.00 | 0.00 | 32 | 980.6 |
| 20260503203713 | 59 | 194 | 0.0 | 4.0 | 0.00 | 0.00 | 0.00 | 32 | 980.8 |
| 20260503203211 | 60 | 164 | 5.0 | 7.0 | 0.00 | 0.00 | 0.00 | 34 | 980.7 |
| 20260503202708 | 59 | 340 | 2.0 | 6.0 | 0.00 | 0.00 | 0.00 | 32 | 981.0 |
| 20260503202205 | 58 | 260 | 4.0 | 4.0 | 0.00 | 0.00 | 0.00 | 34 | 981.1 |
| 20260503201703 | 59 | 77 | 3.0 | 6.0 | 0.00 | 0.00 | 0.00 | 36 | 981.0 |
| 20260503201200 | 59 | 80 | 3.0 | 4.0 | 0.00 | 0.00 | 0.00 | 33 | 980.9 |
| 20260503200656 | 59 | 77 | 5.0 | 7.0 | 0.00 | 0.00 | 0.00 | 32 | 981.1 |
| 20260503200153 | 60 | 293 | 5.0 | 11.0 | 0.00 | 0.00 | 0.00 | 34 | 981.2 |
| 20260503195650 | 59 | 110 | 4.0 | 6.0 | 0.00 | 0.00 | 0.00 | 35 | 981.3 |
| 20260503195147 | 58 | 300 | 1.0 | 3.0 | 0.00 | 0.00 | 0.00 | 34 | 981.4 |
| 20260503194644 | 58 | 337 | 5.0 | 7.0 | 0.00 | 0.00 | 0.00 | 33 | 981.7 |
| 20260503194139 | 59 | 327 | 2.0 | 7.0 | 0.00 | 0.00 | 0.00 | 37 | 981.7 |
| 20260503193637 | 57 | 104 | 1.0 | 6.0 | 0.00 | 0.00 | 0.00 | 33 | 981.7 |
| 20260503193132 | 59 | 174 | 3.0 | 6.0 | 0.00 | 0.00 | 0.00 | 38 | 981.9 |
| 20260503192628 | 58 | 197 | 0.0 | 3.0 | 0.00 | 0.00 | 0.00 | 34 | 981.8 |
| 20260503192123 | 58 | 140 | 4.0 | 11.0 | 0.00 | 0.00 | 0.00 | 33 | 981.9 |
| 20260503191621 | 58 | 279 | 4.0 | 9.0 | 0.00 | 0.00 | 0.00 | 35 | 982.1 |
| 20260503191118 | 59 | 198 | 2.0 | 7.0 | 0.00 | 0.00 | 0.00 | 34 | 982.2 |
| 20260503190615 | 59 | 70 | 3.0 | 7.0 | 0.00 | 0.00 | 0.00 | 40 | 981.9 |
| 20260503190111 | 58 | 45 | 1.0 | 4.0 | 0.00 | 0.00 | 0.00 | 38 | 982.0 |
| 20260503185608 | 58 | 36 | 0.0 | 2.0 | 0.00 | 0.00 | 0.00 | 36 | 982.4 |
| 20260503185108 | 57 | 66 | 4.0 | 7.0 | 0.00 | 0.00 | 0.00 | 38 | 982.2 |
| 20260503184603 | 57 | 102 | 1.0 | 3.0 | 0.00 | 0.00 | 0.00 | 36 | 982.0 |
| 20260503184100 | 57 | 58 | 5.0 | 6.0 | 0.00 | 0.00 | 0.00 | 36 | 982.3 |
| 20260503183557 | 57 | 261 | 3.0 | 4.0 | 0.00 | 0.00 | 0.00 | 34 | 982.6 |
| 20260503183054 | 56 | 37 | 1.0 | 3.0 | 0.00 | 0.00 | 0.00 | 36 | 982.4 |
| 20260503182553 | 57 | 244 | 2.0 | 4.0 | 0.00 | 0.00 | 0.00 | 38 | 982.6 |
| 20260503182050 | 57 | 186 | 2.0 | 4.0 | 0.00 | 0.00 | 0.00 | 41 | 982.7 |
| 20260503181547 | 57 | 97 | 1.0 | 3.0 | 0.00 | 0.00 | 0.00 | 37 | 982.6 |
| 20260503181043 | 56 | 273 | 0.0 | 1.0 | 0.00 | 0.00 | 0.00 | 36 | 982.5 |
| 20260503180541 | 56 | 354 | 1.0 | 11.0 | 0.00 | 0.00 | 0.00 | 36 | 982.7 |
| 20260503180038 | 56 | 233 | 3.0 | 8.0 | 0.00 | 0.00 | 0.00 | 35 | 982.8 |
| 20260503175535 | 56 | 103 | 1.0 | 7.0 | 0.00 | 0.00 | 0.00 | 38 | 982.9 |
| 20260503175032 | 56 | 77 | 3.0 | 6.0 | 0.00 | 0.00 | 0.00 | 36 | 982.9 |
| 20260503174530 | 55 | 208 | 4.0 | 8.0 | 0.00 | 0.00 | 0.00 | 36 | 983.0 |
| 20260503174026 | 56 | 122 | 4.0 | 4.0 | 0.00 | 0.00 | 0.00 | 40 | 983.2 |
| 20260503173521 | 55 | 99 | 4.0 | 6.0 | 0.00 | 0.00 | 0.00 | 41 | 983.1 |
| 20260503173017 | 56 | 130 | 1.0 | 4.0 | 0.00 | 0.00 | 0.00 | 41 | 983.0 |
| 20260503172515 | 55 | 131 | 2.0 | 9.0 | 0.00 | 0.00 | 0.00 | 40 | 983.2 |
| 20260503172012 | 55 | 118 | 2.0 | 2.0 | 0.00 | 0.00 | 0.00 | 41 | 983.4 |
| 20260503171508 | 53 | 62 | 2.0 | 6.0 | 0.00 | 0.00 | 0.00 | 42 | 983.2 |
| 20260503171006 | 53 | 66 | 4.0 | 6.0 | 0.00 | 0.00 | 0.00 | 44 | 983.2 |
| 20260503170502 | 54 | 133 | 2.0 | 3.0 | 0.00 | 0.00 | 0.00 | 41 | 983.4 |
| 20260503150854 | 49 | 221 | 1.0 | 9.0 | 0.00 | 0.00 | 0.00 | 55 | 984.7 |
| 20260503150350 | 48 | 315 | 3.0 | 3.0 | 0.00 | 0.00 | 0.00 | 48 | 984.5 |
| 20260503140315 | 47 | 346 | 4.0 | 7.0 | 0.00 | 0.00 | 0.00 | 64 | 985.0 |
| 20260503131244 | 43 | 125 | 2.0 | 4.0 | 0.00 | 0.00 | 0.00 | 76 | 984.6 |
| 20260503130742 | 43 | 110 | 3.0 | 3.0 | 0.00 | 0.00 | 0.00 | 77 | 984.6 |
| 20260503130239 | 43 | 125 | 1.0 | 3.0 | 0.00 | 0.00 | 0.00 | 78 | 984.6 |
| 20260503120205 | 33 | 291 | 0.0 | 0.0 | 0.00 | 0.00 | 0.00 | 99 | 984.4 |
| 20260503110632 | 27 | 291 | 0.0 | 0.0 | 0.00 | 0.00 | 0.00 | 99 | 983.8 |
| 20260503110129 | 27 | 291 | 0.0 | 0.0 | 0.00 | 0.00 | 0.00 | 99 | 983.6 |
| 20260503081445 | 29 | 291 | 0.0 | 0.0 | 0.00 | 0.00 | 0.00 | 99 | 982.5 |
| 20260503080943 | 29 | 291 | 0.0 | 0.0 | 0.00 | 0.00 | 0.00 | 99 | 982.4 |
| 20260503080439 | 29 | 291 | 0.0 | 0.0 | 0.00 | 0.00 | 0.00 | 99 | 982.4 |
| 20260503072915 | 30 | 291 | 0.0 | 0.0 | 0.00 | 0.00 | 0.00 | 98 | 982.1 |
| 20260503072413 | 30 | 291 | 0.0 | 0.0 | 0.00 | 0.00 | 0.00 | 98 | 982.2 |
| 20260503071909 | 31 | 291 | 0.0 | 0.0 | 0.00 | 0.00 | 0.00 | 98 | 982.2 |
| 20260503071407 | 31 | 291 | 0.0 | 1.0 | 0.00 | 0.00 | 0.00 | 98 | 981.9 |
| 20260503070902 | 31 | 291 | 0.0 | 0.0 | 0.00 | 0.00 | 0.00 | 98 | 981.9 |
| 20260503070400 | 31 | 291 | 0.0 | 0.0 | 0.00 | 0.00 | 0.00 | 98 | 982.0 |
| 20260503060326 | 34 | 291 | 0.0 | 1.0 | 0.00 | 0.00 | 0.00 | 96 | 981.9 |
| 20260503054814 | 35 | 291 | 0.0 | 0.0 | 0.00 | 0.00 | 0.00 | 95 | 982.0 |
| 20260503054309 | 35 | 291 | 0.0 | 0.0 | 0.00 | 0.00 | 0.00 | 95 | 982.0 |
| 20260503053807 | 35 | 291 | 0.0 | 0.0 | 0.00 | 0.00 | 0.00 | 95 | 981.8 |
| 20260503053306 | 35 | 291 | 0.0 | 0.0 | 0.00 | 0.00 | 0.00 | 95 | 981.9 |
| 20260503052801 | 35 | 291 | 0.0 | 0.0 | 0.00 | 0.00 | 0.00 | 94 | 981.8 |
| 20260503052259 | 35 | 291 | 0.0 | 0.0 | 0.00 | 0.00 | 0.00 | 94 | 981.8 |
| 20260503051754 | 36 | 291 | 0.0 | 0.0 | 0.00 | 0.00 | 0.00 | 93 | 981.8 |
| 20260503051251 | 36 | 291 | 0.0 | 0.0 | 0.00 | 0.00 | 0.00 | 94 | 981.9 |
| 20260503050748 | 36 | 291 | 0.0 | 1.0 | 0.00 | 0.00 | 0.00 | 94 | 981.8 |
| 20260503050244 | 36 | 291 | 0.0 | 0.0 | 0.00 | 0.00 | 0.00 | 94 | 981.9 |
| 20260503045742 | 35 | 291 | 0.0 | 0.0 | 0.00 | 0.00 | 0.00 | 94 | 981.9 |
| 20260503045240 | 35 | 291 | 0.0 | 0.0 | 0.00 | 0.00 | 0.00 | 94 | 981.8 |
| 20260503044736 | 35 | 291 | 0.0 | 0.0 | 0.00 | 0.00 | 0.00 | 94 | 981.8 |
| 20260503044233 | 35 | 291 | 0.0 | 0.0 | 0.00 | 0.00 | 0.00 | 94 | 981.9 |
| 20260503043730 | 35 | 291 | 0.0 | 0.0 | 0.00 | 0.00 | 0.00 | 94 | 981.8 |
| 20260503043227 | 34 | 291 | 0.0 | 0.0 | 0.00 | 0.00 | 0.00 | 94 | 981.7 |
| 20260503042723 | 34 | 291 | 0.0 | 0.0 | 0.00 | 0.00 | 0.00 | 93 | 981.6 |
| 20260503042220 | 34 | 291 | 0.0 | 0.0 | 0.00 | 0.00 | 0.00 | 93 | 981.6 |
| 20260503041715 | 35 | 291 | 0.0 | 0.0 | 0.00 | 0.00 | 0.00 | 93 | 981.6 |
| 20260503041214 | 35 | 291 | 1.0 | 1.0 | 0.00 | 0.00 | 0.00 | 92 | 981.7 |
| 20260503040711 | 35 | 291 | 0.0 | 0.0 | 0.00 | 0.00 | 0.00 | 91 | 981.7 |
| 20260503040208 | 35 | 291 | 0.0 | 0.0 | 0.00 | 0.00 | 0.00 | 91 | 981.7 |
| 20260503035705 | 36 | 291 | 0.0 | 0.0 | 0.00 | 0.00 | 0.00 | 90 | 981.3 |
| 20260503035202 | 36 | 291 | 0.0 | 0.0 | 0.00 | 0.00 | 0.00 | 90 | 981.7 |
| 20260503034700 | 37 | 291 | 0.0 | 0.0 | 0.00 | 0.00 | 0.00 | 88 | 981.4 |
| 20260503034157 | 37 | 291 | 0.0 | 0.0 | 0.00 | 0.00 | 0.00 | 88 | 981.6 |
| 20260503033654 | 37 | 291 | 0.0 | 0.0 | 0.00 | 0.00 | 0.00 | 87 | 981.6 |
| 20260503033152 | 38 | 291 | 0.0 | 0.0 | 0.00 | 0.00 | 0.00 | 86 | 981.7 |
| 20260503032649 | 38 | 291 | 0.0 | 0.0 | 0.00 | 0.00 | 0.00 | 84 | 981.7 |
| 20260503032148 | 38 | 291 | 0.0 | 1.0 | 0.00 | 0.00 | 0.00 | 83 | 981.8 |
| 20260503031645 | 39 | 291 | 0.0 | 0.0 | 0.00 | 0.00 | 0.00 | 81 | 981.6 |
| 20260503031143 | 38 | 291 | 0.0 | 0.0 | 0.00 | 0.00 | 0.00 | 84 | 981.7 |
| 20260503030638 | 38 | 290 | 1.0 | 1.0 | 0.00 | 0.00 | 0.00 | 83 | 981.5 |
| 20260503030135 | 39 | 290 | 0.0 | 0.0 | 0.00 | 0.00 | 0.00 | 82 | 981.7 |
| 20260503025632 | 40 | 290 | 0.0 | 0.0 | 0.00 | 0.00 | 0.00 | 80 | 981.8 |
| 20260503025130 | 41 | 290 | 0.0 | 1.0 | 0.00 | 0.00 | 0.00 | 79 | 981.6 |
| 20260503024626 | 41 | 303 | 1.0 | 2.0 | 0.00 | 0.00 | 0.00 | 74 | 981.5 |
| 20260503024123 | 42 | 303 | 1.0 | 1.0 | 0.00 | 0.00 | 0.00 | 71 | 981.5 |
| 20260503023620 | 43 | 316 | 1.0 | 2.0 | 0.00 | 0.00 | 0.00 | 68 | 981.6 |
| 20260503023118 | 44 | 311 | 1.0 | 3.0 | 0.00 | 0.00 | 0.00 | 66 | 981.6 |
| 20260503022613 | 43 | 331 | 1.0 | 2.0 | 0.00 | 0.00 | 0.00 | 66 | 981.6 |
| 20260503022108 | 44 | 293 | 1.0 | 3.0 | 0.00 | 0.00 | 0.00 | 66 | 981.7 |
| 20260503021605 | 44 | 293 | 0.0 | 2.0 | 0.00 | 0.00 | 0.00 | 64 | 981.4 |
| 20260503021057 | 44 | 332 | 2.0 | 3.0 | 0.00 | 0.00 | 0.00 | 63 | 981.6 |
| 20260503020554 | 44 | 313 | 3.0 | 3.0 | 0.00 | 0.00 | 0.00 | 63 | 981.4 |
| 20260503020051 | 45 | 86 | 1.0 | 6.0 | 0.00 | 0.00 | 0.00 | 61 | 981.1 |
| 20260503015547 | 44 | 328 | 5.0 | 8.0 | 0.00 | 0.00 | 0.00 | 61 | 981.0 |